DELTA 1 DEB, 42579

Orbit data source: Space-Track

DELTA 1 DEB, 42579 is space debris in SSO originally from a launch on Tue, 06 Nov 1973 UTC launched from the Air Force Western Test Range (AFWTR). Debris objects in space refer to the collection of defunct objects orbiting the Earth. Examples of debris include non-operational satellites, rocket bodies, and fragments generated from explosions, collisions, or faulty payload assembly.

Loading next visibility...
Identifier
42579, 1973-086HT
Orbit
SSO
Country
Flag of USUS
Related business
Manufacturer
Unknown
Mission
Spacecraft
Bus & Motor
Unknown
Mass
Unknown
Launch date (UTC)
1973-11-06 (52 years ago)
Launch vehicle
Unknown
Launch site
Air Force Western Test Range (AFWTR)
Object type
Payload
Rocket body
Debris
Shape & HBR
Unknown shape, 0.1 m
Radar Cross Section
Small (<0.1 m²)

Expand to show TLE details & history
Last TLE update: 2 weeks ago

TLE from 2 weeks ago
0 DELTA 1 DEB
1 42579U 73086HT  25333.46995562  .00000055  00000-0  89363-3 0  9995
2 42579 102.6053 343.4603 0080782 350.2302   9.7178 12.26768455186103
Epoch: 2025-11-29T11:16Z
TLE epoch observation values (Epoch: 2025-11-29T11:16:44.165Z)
Latitude
-0.00009°
Longitude
105.67859°
Altitude
1,502.478 km
Speed
7.142 km/s
True Right ascension
22h 53m 50s
True Declination
0° 00' 00"
Sunlit
Object was in daylight at epoch
Visualization orbit readout
Latitude
Unknown
Longitude
Unknown
Altitude
Unknown
Speed
Unknown
Apparent Right ascension
Unknown
Apparent Declination
Unknown
Sunlit
N/A
Visualization observer readout
Local Sidereal Time
12:00:40
Azimuth
Unknown
Elevation
Unknown
Doppler factor
Unknown
Orbital elements
Apogee altitude
1,624.958 km
Perigee altitude
1,496.693 km
Semi-major axis
7,938.962 km
Eccentricity
0.00808
Inclination
102.6053°
RAAN
343.4603°
Arg. of periapsis
350.2302°
True anomaly
9.87562°
Mean anomaly
9.7178°
Eccentric anomaly
9.79655°
Mean motion
3.0683 °/min
Orbital period
117.33 mins
BSTAR
0.00089363
Loading maneuver chart data...
Computing Atmospheric mass density...
Loading historical data...
Loading historical data...
Loading historical data...
Loading historical data...
Loading historical data...
Loading historical data...
Loading historical data...

Documentation

Showing up to 5 results
|